sat.trackr.live / text

‹ back to catalog

STARLINK-11232 [DTC]

NORAD 60401 · 2024-141D

PAYLOAD ACTIVE UNKNOWN

§ Identity

Operator
Country
US
Launch date
2024-08-10
Launch site
AFETR
Launch vehicle
Mass (kg)
RCS (m²)

Purposes: comms

External: N2YO · Heavens-Above · Gunter

§ Orbital elements

Epoch: 2026-05-25T04:50:32.299872Z

Period
91.74 min
Inclination
53.1591°
Eccentricity
0.0000940
Mean motion
15.69714223 rev/d
Perigee alt
359.1 km
Apogee alt
360.3 km
Semi-major
6,737.9 km
B*
1.1359e-5
RAAN
68.8168°
Arg perigee
95.6041°
Mean anomaly
264.5084°
Rev number
10,376

§ Raw data

STARLINK-11232 [DTC]1 60401U 24141D   26145.20176273  .00000788  00000+0  11359-4 0  99942 60401  53.1591  68.8168 0000940  95.6041 264.5084 15.69714223103768

JSON: /api/v1/satellites/60401 · /tle

For live sub-satellite position, see the globe view (requires WebGL).

§ Visibility from observer

Set your observer location to see the next 7 days of passes ≥ 10°. The values pass through the URL so the page stays shareable.

No JS? Fill the form by hand. The geolocation button needs JavaScript.